This is the latest recevied weather packets stored in our database for station/object F4GMT-11. If no packets are shown the sender has not sent any weather packets the latest 10 day(s).
| Time | Temp. | Humidity | Pressure | Rain* | Wind** | Luminosity | Snow |
|---|---|---|---|---|---|---|---|
| 1778252279 | 23.89° C | 38% | 1009.2 hPa | - | - | - | - |
| 1778245072 | 23.33° C | 43% | 1009.8 hPa | - | - | - | - |
| 1778240271 | 22.78° C | 50% | 1009.6 hPa | - | - | - | - |
| 1778236670 | 21.67° C | 49% | 1010.2 hPa | - | - | - | - |
| 1778235470 | 21.11° C | 51% | 1010.4 hPa | - | - | - | - |
| 1778234269 | 21.67° C | 59% | 1010.4 hPa | - | - | - | - |
| 1778233068 | 21.11° C | 61% | 1010.5 hPa | - | - | - | - |
| 1778231869 | 20° C | 61% | 1010.5 hPa | - | - | - | - |
| 1778230668 | 18.89° C | 62% | 1010.5 hPa | - | - | - | - |
| 1778229467 | 18.33° C | 63% | 1010.5 hPa | - | - | - | - |
| 1778227067 | 16.67° C | 62% | 1010.6 hPa | - | - | - | - |
| 1778225866 | 16.11° C | 61% | 1010.6 hPa | - | - | - | - |
| 1778224666 | 15.56° C | 60% | 1010.5 hPa | - | - | - | - |
| 1778223465 | 15° C | 59% | 1010.5 hPa | - | - | - | - |
| 1778222265 | 14.44° C | 58% | 1010.5 hPa | - | - | - | - |
| 1778218664 | 13.89° C | 55% | 1010.2 hPa | - | - | - | - |
| 1778217463 | 13.89° C | 55% | 1010.3 hPa | - | - | - | - |
| 1778216262 | 13.89° C | 55% | 1010.2 hPa | - | - | - | - |
| 1778215061 | 14.44° C | 55% | 1010.1 hPa | - | - | - | - |
| 1778213861 | 14.44° C | 54% | 1010.2 hPa | - | - | - | - |
| 1778212660 | 14.44° C | 55% | 1010.2 hPa | - | - | - | - |
| 1778211459 | 15° C | 55% | 1010.2 hPa | - | - | - | - |
| 1778210260 | 15° C | 54% | 1010.2 hPa | - | - | - | - |
| 1778209060 | 15° C | 54% | 1010.3 hPa | - | - | - | - |
| 1778207860 | 15.56° C | 54% | 1010.3 hPa | - | - | - | - |
* Rain since midnight (hover to see other rain measurements)
** Current wind speed in m/s (hover to see current wind gust speed)